TimeCST,TemperatureF,Dew PointF,Humidity,Sea Level PressureIn,VisibilityMPH,Wind Direction,Wind SpeedMPH,Gust SpeedMPH,PrecipitationIn,Events,Conditions,WindDirDegrees,DateUTC
12:53 AM,24.1,12.9,62,30.25,10.0,North,11.5,-,N/A,,Overcast,350,2012-12-26 06:53:00
1:11 AM,23.0,12.2,63,30.23,10.0,North,12.7,-,N/A,,Scattered Clouds,360,2012-12-26 07:11:00
1:53 AM,21.9,12.9,68,30.26,10.0,North,8.1,-,N/A,,Clear,350,2012-12-26 07:53:00
2:53 AM,21.0,12.0,68,30.26,10.0,NNW,6.9,-,N/A,,Clear,330,2012-12-26 08:53:00
3:53 AM,19.9,12.0,71,30.25,10.0,NNW,5.8,-,N/A,,Clear,340,2012-12-26 09:53:00
4:53 AM,19.9,12.0,71,30.25,10.0,NNW,8.1,-,N/A,,Clear,330,2012-12-26 10:53:00
5:53 AM,19.9,10.9,68,30.23,10.0,North,10.4,-,N/A,,Clear,360,2012-12-26 11:53:00
6:53 AM,19.9,12.0,71,30.23,10.0,North,8.1,-,N/A,,Clear,10,2012-12-26 12:53:00
7:53 AM,19.9,10.9,68,30.24,10.0,North,8.1,-,N/A,,Clear,350,2012-12-26 13:53:00
8:53 AM,21.0,12.0,68,30.25,10.0,North,4.6,-,N/A,,Clear,360,2012-12-26 14:53:00
9:53 AM,23.0,12.9,65,30.25,10.0,Calm,Calm,-,N/A,,Clear,0,2012-12-26 15:53:00
10:53 AM,25.0,14.0,63,30.25,10.0,Calm,Calm,-,N/A,,Clear,0,2012-12-26 16:53:00
11:53 AM,28.9,14.0,54,30.21,10.0,Calm,Calm,-,N/A,,Clear,0,2012-12-26 17:53:00
12:53 PM,30.9,12.9,47,30.14,10.0,Calm,Calm,-,N/A,,Clear,0,2012-12-26 18:53:00
1:53 PM,35.1,12.9,40,30.08,10.0,SE,5.8,-,N/A,,Clear,140,2012-12-26 19:53:00
2:53 PM,37.9,15.1,39,30.04,10.0,Variable,4.6,-,N/A,,Clear,0,2012-12-26 20:53:00
3:53 PM,39.9,16.0,38,30.01,10.0,SSE,10.4,-,N/A,,Clear,150,2012-12-26 21:53:00
4:53 PM,41.0,17.1,38,29.99,10.0,SSE,10.4,-,N/A,,Clear,150,2012-12-26 22:53:00
5:53 PM,39.9,16.0,38,29.99,10.0,ESE,9.2,-,N/A,,Clear,120,2012-12-26 23:53:00
6:53 PM,37.9,16.0,41,29.99,10.0,SE,12.7,-,N/A,,Clear,140,2012-12-27 00:53:00
7:53 PM,37.0,15.1,41,29.96,10.0,SE,11.5,-,N/A,,Clear,140,2012-12-27 01:53:00
8:53 PM,33.1,14.0,46,29.98,10.0,SSE,6.9,-,N/A,,Clear,150,2012-12-27 02:53:00
9:53 PM,30.9,14.0,50,29.96,10.0,SE,9.2,-,N/A,,Clear,140,2012-12-27 03:53:00
10:53 PM,30.9,14.0,50,29.94,10.0,SE,10.4,-,N/A,,Clear,140,2012-12-27 04:53:00
11:53 PM,27.0,12.9,56,29.93,10.0,SSE,6.9,-,N/A,,Clear,150,2012-12-27 05:53:00